Regional Weather Roundup
Issued by NWS Raleigh/Durham, NC

Home | Current Version | Previous Version | Text Only | Print | Product List | Glossary On
Versions: 1 2 3 4 5 6 7 8 9 10 11 12 13 14 15 16 17 18 19 20 21 22 23 24 25 26 27 28 29 30 31 32 33 34 35 36 37 38 39 40 41 42 43 44 45 46 47 48 49 50
000
ASUS42 KRAH 280810
RWRRAH
NORTH CAROLINA WEATHER ROUNDUP
NATIONAL WEATHER SERVICE RALEIGH NC
400 AM EDT MON JUL 28 2014

NOTE: "FAIR" INDICATES FEW OR NO CLOUDS BELOW 12,000 FEET WITH NO
SIGNIFICANT WEATHER AND/OR OBSTRUCTIONS TO VISIBILITY.

NCZ001-053-055-056-065-067-280900-
WESTERN NORTH CAROLINA

CITY           SKY/WX    TMP DP  RH WIND       PRES   REMARKS
ASHEVILLE      CLOUDY    65  64  97 S3        29.96F
JEFFERSON      MOCLDY    67  59  75 W16G32    29.93R
MORGANTON      CLOUDY    67  66  97 S5        29.91F
HICKORY        CLOUDY    68  65  90 W5        29.85S
RUTHERFORDTON  CLOUDY    67  67  97 SW3       29.89F
MOUNT AIRY     CLOUDY    70  66  86 SW6       29.80F
BOONE          MOCLDY    64  62  96 NW13G18   29.95S
$$

NCZ021-022-025-041-071-084-088-280900-
CENTRAL NORTH CAROLINA

CITY           SKY/WX    TMP DP  RH WIND       PRES   REMARKS
CHARLOTTE      LGT RAIN  70  66  87 CALM      29.86F
GREENSBORO     CLOUDY    73  63  70 W15G22    29.80F
WINSTON-SALEM  CLOUDY    71  65  81 W6        29.81F
RALEIGH-DURHAM CLOUDY    81  63  54 W8        29.75F
FORT BRAGG     CLOUDY    83  71  66 W16G24    29.78S
FAYETTEVILLE   CLOUDY    83  72  69 W13       29.79R
BURLINGTON     LGT RAIN  72  63  73 W14G22    29.78F
LAURINBURG     CLOUDY    82  72  71 NW10      29.81R
$$

NCZ011-015-027-028-043-044-047-080-103-280900-
NORTHEASTERN NORTH CAROLINA

CITY           SKY/WX    TMP DP  RH WIND       PRES   REMARKS
ROCKY MT-WILSO CLOUDY    82  69  64 W10G18    29.72F
GREENVILLE     CLOUDY    81  73  78 SW7       29.76R
WASHINGTON     MOCLDY    79  74  84 S5        29.72F
ELIZABETH CITY MOCLDY    79  74  84 SW13      29.69F
MANTEO         NOT AVBL
CAPE HATTERAS  MOCLDY    81  80  97 SW17G25   29.76F
$$

NCZ078-087-090-091-093-098-101-280900-
SOUTHEASTERN NORTH CAROLINA

CITY           SKY/WX    TMP DP  RH WIND       PRES   REMARKS
LUMBERTON      CLOUDY    83  72  69 SW12      29.79R
GOLDSBORO      CLOUDY    80  78  92 W9        29.73R
KINSTON        CLOUDY    81  73  77 SW8       29.76R
KENANSVILLE    CLOUDY    79  72  79 SW3       29.78S
NEW BERN       MOCLDY    83  75  77 SW8       29.77S
CHERRY POINT   MOCLDY    82  76  81 S9G20     29.75F
BEAUFORT       PTCLDY    83  80  91 SW18        N/A  HX  95
JACKSONVILLE   CLOUDY    83  74  74 W9        29.77S
WILMINGTON     MOCLDY    84  74  71 SW13      29.78F
$$



USA.gov is the U.S. government's official web portal to all federal, state and local government web resources and services.